Regional Weather Roundup
Issued by NWS

Home | Current Version | Previous Version | Text Only | Print | Product List | Glossary On
Versions: 1 2 3 4 5 6 7 8 9 10 11 12 13 14 15 16 17 18 19 20 21 22 23 24 25 26 27 28 29 30 31 32 33 34 35 36 37 38 39 40 41 42 43 44 45 46 47 48 49 50
000
ASUS43 KTOP 310708
RWRKS

WEATHER ROUNDUP FOR KANSAS
NATIONAL WEATHER SERVICE GOODLAND KS
200 AM CDT TUE MAR 31 2015

NOTE:  "FAIR" INDICATES FEW OR NO CLOUDS BELOW 12,000 FEET WITH NO
SIGNIFICANT WEATHER AND/OR OBSTRUCTIONS TO VISIBILITY.

KSZ001>006-013>018-027>032-041>047-310800-
NORTHWEST KANSAS

CITY           SKY/WX    TMP DP  RH WIND       PRES   REMARKS
GOODLAND       CLEAR     42  22  44 N3        30.06S
HAYS           CLEAR     54  25  32 N10       29.99R
HILL CITY      CLEAR     44  23  43 CALM      30.02R
RUSSELL        CLEAR     47  29  49 NW9       29.95R
$$

KSZ061>065-074>080-084>089-310800-
SOUTHWEST KANSAS

CITY           SKY/WX    TMP DP  RH WIND       PRES   REMARKS
DODGE CITY     CLEAR     54  24  31 E7        30.00F
ELKHART          N/A     56  28  34 N3          N/A
GARDEN CITY    CLEAR     48  23  37 E8        30.00F
GREAT BEND     PTCLDY    41  27  56 W6        29.96S
LIBERAL        CLEAR     48  28  46 NE7       30.01S
PRATT          MOCLDY    50  34  53 W9        29.98S
$$

KSZ066>073-081>083-090>101-310800-
SOUTHEAST KANSAS

CITY           SKY/WX    TMP DP  RH WIND       PRES   REMARKS
CHANUTE        CLEAR     51  41  68 SE8       29.96S
COFFEYVILLE    CLEAR     54  44  69 S9        29.95F
HUTCHINSON     PTCLDY    53  39  59 W3        29.93S
MEDICINE LODGE   N/A     53  41  63 N5        29.96F
NEWTON         PTCLDY    55  37  50 SW10      29.94F
PARSONS        CLEAR     56  42  59 S3        29.96F
WICHITA INTL   MOCLDY    54  40  59 S3        29.94F
WICHITA JABRA  PTCLDY    60  40  47 SW10      29.94F
WICHITA MCCONL PTCLDY    58  41  53 S8        29.94F
$$

KSZ007>012-019>026-033>040-048>060-102>105-310800-
NORTHEAST KANSAS

CITY           SKY/WX    TMP DP  RH WIND       PRES   REMARKS
CONCORDIA      CLEAR     50  38  63 NW5       29.96R
EMPORIA        CLEAR     47  37  68 SE8       29.94F HAZE
LAWRENCE       CLEAR     51  36  56 NW8       29.96R
MANHATTAN      CLEAR     48  39  71 CALM      29.94S
MARYSVILLE     CLEAR     48  37  66 E3        29.95F
OLATHE IND     CLEAR     54  37  52 SW6       29.96S
OLATHE EXE     CLEAR     57  37  47 SW5       29.95R
SALINA         CLEAR     49  37  63 CALM      29.93S
TOPEKA BILLARD CLEAR     51  38  60 CALM      29.96R
TOPEKA FORBES  CLEAR     51  37  58 NW5       29.95R HAZE
$$


USA.gov is the U.S. government's official web portal to all federal, state and local government web resources and services.